Location: Newark
(50.4348°N, 30.5552°E)
Time: 01:33:28
(UTC+00:00)

Transit 2A Rocket - Pass Details

Date: 29 January 2020
Orbit: 591 x 912 km, 66.7° (Epoch: 25 February)

Event Time Altitude Azimuth Distance (km) Brightness Sun altitude
Exits shadow 01:29:46 11° 70° (ENE) 1,884 7.7 -39.1°
Drops below altitude 10° 01:29:54 10° 69° (ENE) 1,921 7.8 -39.1°
Sets 01:32:53 0° 49° (NE) 2,879 8.8 -38.6°
